Regional Weather Roundup
Issued by NWS Little Rock, AR

Home | Current Version | Previous Version | Graphics & Text | Print | Product List | Glossary On
Versions: 1 2 3 4 5 6 7 8 9 10 11 12 13 14 15 16 17 18 19 20 21 22 23 24 25 26 27 28 29 30 31 32 33 34 35 36 37 38 39 40 41 42 43 44 45 46 47 48 49 50
000
ASUS44 KLZK 250605
RWRLZK

WEATHER ROUNDUP FOR ARKANSAS
NATIONAL WEATHER SERVICE LITTLE ROCK AR
1200 AM CST SUN JAN 25 2015

NOTE: "FAIR" INDICATES FEW OR NO CLOUDS BELOW 12,000 FEET WITH NO
SIGNIFICANT WEATHER AND/OR OBSTRUCTIONS TO VISIBILITY.

ARZ001-003-010-029-250700-
NORTHWEST ARKANSAS

CITY           SKY/WX    TMP DP  RH WIND       PRES   REMARKS
FAYETTEVILLE   PTCLDY    47  33  58 SW13      29.84F
6HR MIN TEMP:  39; 6HR MAX TEMP:  49;

FORT SMITH     PTCLDY    39  32  76 CALM      29.89F
6HR MIN TEMP:  37; 6HR MAX TEMP:  50;

HARRISON       CLOUDY    52  32  46 W13G28    29.80F
6HR MIN TEMP:  48; 6HR MAX TEMP:  52;

BENTONVILLE    MOCLDY    46  30  53 SW10      29.83F
6HR MIN TEMP:  45; 6HR MAX TEMP:  48;

ROGERS         MOCLDY    48  33  56 SW16G25   29.81F
6HR MIN TEMP:  44; 6HR MAX TEMP:  50;

SILOAM SPGS    MOCLDY    46  30  53 SW14      29.84F
6HR MIN TEMP:  41; 6HR MAX TEMP:  48;

HIGHFILL       MOCLDY    46  32  58 SW12      29.81F
6HR MIN TEMP:  45; 6HR MAX TEMP:  50;

$$

ARZ004-005-016-250700-
NORTH CENTRAL ARKANSAS

CITY           SKY/WX    TMP DP  RH WIND       PRES   REMARKS
BATESVILLE     PTCLDY    45  30  57 SW9       29.85F
6HR MIN TEMP:  43; 6HR MAX TEMP:  54;

FLIPPIN        CLOUDY    46  30  53 SW5       29.80F
6HR MIN TEMP:  45; 6HR MAX TEMP:  52;

MTN HOME       CLOUDY    45  32  60 S6        29.80F
6HR MIN TEMP:  43; 6HR MAX TEMP:  52;

$$

ARZ040-041-250700-
WEST CENTRAL ARKANSAS

CITY           SKY/WX    TMP DP  RH WIND       PRES   REMARKS
MENA           CLEAR     46  36  66 SW6       29.92F
MOUNT IDA      CLEAR     39  32  76 W3        29.88F
6HR MIN TEMP:  35; 6HR MAX TEMP:  51;

$$

ARZ009-017-025-026-028-250700-
NORTHEAST ARKANSAS

CITY           SKY/WX    TMP DP  RH WIND       PRES   REMARKS
JONESBORO      CLEAR     41  33  73 W5        29.85F
6HR MIN TEMP:  38; 6HR MAX TEMP:  46;

NEWPORT        CLEAR     37  31  79 SW8       29.87F
6HR MIN TEMP:  36; 6HR MAX TEMP:  44;

WALNUT RIDGE   PTCLDY    37  30  75 S8        29.83F
6HR MIN TEMP:  36; 6HR MAX TEMP:  52;

BLYTHEVILLE    CLEAR     41  34  76 SW13      29.86F
6HR MIN TEMP:  39; 6HR MAX TEMP:  45;

$$

ARZ022-023-033-042-044-250700-
CENTRAL ARKANSAS

CITY           SKY/WX    TMP DP  RH WIND       PRES   REMARKS
LITTLE ROCK    PTCLDY    42  32  67 SW8       29.93R
6HR MIN TEMP:  42; 6HR MAX TEMP:  55;

N LITTLE ROCK  PTCLDY    46  36  68 W5        29.93R
6HR MIN TEMP:  45; 6HR MAX TEMP:  52;

JACKSONVILLE   CLEAR     34  29  82 SW2       29.90F
6HR MIN TEMP:  32; 6HR MAX TEMP:  46;

SEARCY         CLEAR     39  31  72 SW5       29.91S
6HR MIN TEMP:  35; 6HR MAX TEMP:  50;

HOT SPRINGS    CLEAR     43  34  70 NW3       29.92F
6HR MIN TEMP:  37; 6HR MAX TEMP:  53;

RUSSELLVILLE   CLEAR     33  30  88 CALM      29.88F
6HR MIN TEMP:  32; 6HR MAX TEMP:  54;

CLINTON        FAIR      32  28  86 CALM      29.89F
$$

ARZ036-250700-
EAST ARKANSAS

CITY           SKY/WX    TMP DP  RH WIND       PRES   REMARKS
WEST MEMPHIS   CLEAR     43  34  70 SW8       29.88F
6HR MIN TEMP:  38; 6HR MAX TEMP:  50;

$$

ARZ050-053-066-070-073-250700-
SOUTHWEST ARKANSAS

CITY           SKY/WX    TMP DP  RH WIND       PRES   REMARKS
ARKADELPHIA    FAIR      35  34  96 CALM      29.96S
6HR MIN TEMP:  33; 6HR MAX TEMP:  49;

CAMDEN         CLEAR     36  32  87 CALM      29.97F
TEXARKANA      CLEAR     41  36  82 SW8       29.97F
6HR MIN TEMP:  41; 6HR MAX TEMP:  51;

EL DORADO      CLEAR     35  32  88 SW6       29.98F WCI  30
6HR MIN TEMP:  34; 6HR MAX TEMP:  49;

DE QUEEN       CLEAR     31  30  96 CALM      29.95S FOG
6HR MIN TEMP:  31; 6HR MAX TEMP:  52;

$$

ARZ056-057-069-250700-
SOUTHEAST ARKANSAS

CITY           SKY/WX    TMP DP  RH WIND       PRES   REMARKS
PINE BLUFF     CLEAR     40  32  73 SW7       29.94S
6HR MIN TEMP:  40; 6HR MAX TEMP:  51;

STUTTGART      CLEAR     39  30  70 SW9       29.92S
6HR MIN TEMP:  39; 6HR MAX TEMP:  52;

MONTICELLO     CLEAR     44  33  65 SW7       29.95F
6HR MIN TEMP:  44; 6HR MAX TEMP:  53;


$$





USA.gov is the U.S. government's official web portal to all federal, state and local government web resources and services.